TimeCDT,TemperatureF,Dew PointF,Humidity,Sea Level PressureIn,VisibilityMPH,Wind Direction,Wind SpeedMPH,Gust SpeedMPH,PrecipitationIn,Events,Conditions,WindDirDegrees,DateUTC
12:14 AM,42.8,37.4,81,30.12,10.0,Calm,Calm,-,N/A,,Clear,0,2012-10-09 05:14:00
12:34 AM,42.8,37.4,81,30.11,10.0,Calm,Calm,-,N/A,,Clear,0,2012-10-09 05:34:00
12:54 AM,41.0,37.4,87,30.11,10.0,Calm,Calm,-,N/A,,Clear,0,2012-10-09 05:54:00
1:14 AM,42.8,37.4,81,30.12,10.0,Calm,Calm,-,N/A,,Clear,0,2012-10-09 06:14:00
1:15 AM,41.5,37.8,86,30.12,10.0,Calm,Calm,-,N/A,,Clear,0,2012-10-09 06:15:00
1:54 AM,41.0,37.4,87,30.12,10.0,Calm,Calm,-,N/A,,Clear,0,2012-10-09 06:54:00
2:34 AM,39.2,37.4,93,30.11,10.0,South,3.5,-,N/A,,Clear,190,2012-10-09 07:34:00
2:54 AM,39.2,37.4,93,30.11,10.0,Calm,Calm,-,N/A,,Clear,0,2012-10-09 07:54:00
3:14 AM,39.2,37.4,93,30.11,10.0,Calm,Calm,-,N/A,,Clear,0,2012-10-09 08:14:00
3:35 AM,40.3,37.8,91,30.11,10.0,Calm,Calm,-,N/A,,Clear,0,2012-10-09 08:35:00
3:55 AM,39.0,37.6,95,30.11,10.0,Calm,Calm,-,N/A,,Clear,0,2012-10-09 08:55:00
4:34 AM,39.2,37.4,93,30.11,10.0,SSE,3.5,-,N/A,,Clear,160,2012-10-09 09:34:00
4:55 AM,38.7,37.4,95,30.11,10.0,SSE,3.5,-,N/A,,Clear,160,2012-10-09 09:55:00
4:57 AM,37.4,37.4,100,30.11,10.0,SSE,3.5,-,N/A,,Clear,160,2012-10-09 09:57:00
5:14 AM,39.2,37.4,93,30.11,10.0,South,3.5,-,N/A,,Clear,170,2012-10-09 10:14:00
5:34 AM,39.2,37.4,93,30.10,10.0,SSE,4.6,-,N/A,,Clear,160,2012-10-09 10:34:00
5:54 AM,39.2,37.4,93,30.10,10.0,South,3.5,-,N/A,,Clear,170,2012-10-09 10:54:00
6:14 AM,39.2,37.4,93,30.11,10.0,South,5.8,-,N/A,,Clear,190,2012-10-09 11:14:00
6:35 AM,38.3,36.9,95,30.11,10.0,SSW,4.6,-,N/A,,Clear,200,2012-10-09 11:35:00
6:55 AM,37.8,36.7,96,30.12,10.0,South,5.8,-,N/A,,Clear,190,2012-10-09 11:55:00
7:15 AM,39.2,37.8,95,30.12,10.0,South,4.6,-,N/A,,Clear,190,2012-10-09 12:15:00
7:35 AM,40.6,38.8,93,30.12,10.0,South,3.5,-,N/A,,Clear,180,2012-10-09 12:35:00
7:55 AM,43.2,40.6,91,30.12,10.0,South,6.9,-,N/A,,Clear,190,2012-10-09 12:55:00
8:15 AM,45.9,42.4,88,30.11,10.0,SSW,6.9,-,N/A,,Clear,200,2012-10-09 13:15:00
8:35 AM,48.2,42.6,81,30.12,10.0,SSW,6.9,-,N/A,,Clear,200,2012-10-09 13:35:00
8:55 AM,51.1,43.7,76,30.12,10.0,SW,5.8,-,N/A,,Clear,220,2012-10-09 13:55:00
9:15 AM,53.2,43.7,70,30.12,10.0,SSW,6.9,-,N/A,,Clear,210,2012-10-09 14:15:00
9:35 AM,55.0,44.1,67,30.12,10.0,SSW,10.4,-,N/A,,Clear,200,2012-10-09 14:35:00
9:55 AM,56.3,44.1,64,30.11,10.0,SSW,9.2,-,N/A,,Clear,200,2012-10-09 14:55:00
10:15 AM,57.4,43.5,60,30.11,10.0,SW,10.4,-,N/A,,Clear,220,2012-10-09 15:15:00
10:35 AM,58.3,43.9,59,30.11,10.0,SW,12.7,-,N/A,,Clear,220,2012-10-09 15:35:00
10:55 AM,59.0,43.9,57,30.10,10.0,SSW,12.7,17.3,N/A,,Clear,200,2012-10-09 15:55:00
11:15 AM,60.1,44.1,55,30.09,10.0,South,13.8,19.6,N/A,,Clear,190,2012-10-09 16:15:00
11:35 AM,61.3,43.5,52,30.08,10.0,SSW,17.3,20.7,N/A,,Clear,210,2012-10-09 16:35:00
11:55 AM,61.7,43.7,52,30.07,10.0,SSW,13.8,17.3,N/A,,Clear,210,2012-10-09 16:55:00
12:15 PM,63.1,44.2,50,30.06,10.0,South,11.5,19.6,N/A,,Clear,190,2012-10-09 17:15:00
12:35 PM,63.5,44.2,49,30.05,10.0,SSW,13.8,18.4,N/A,,Clear,200,2012-10-09 17:35:00
12:55 PM,63.5,43.5,48,30.04,10.0,SSW,13.8,17.3,N/A,,Clear,200,2012-10-09 17:55:00
1:15 PM,64.2,44.1,48,30.02,10.0,South,12.7,17.3,N/A,,Clear,180,2012-10-09 18:15:00
1:35 PM,64.0,42.3,45,30.02,10.0,SSW,13.8,19.6,N/A,,Clear,200,2012-10-09 18:35:00
1:55 PM,64.4,42.4,45,30.02,10.0,SSW,13.8,19.6,N/A,,Clear,200,2012-10-09 18:55:00
2:15 PM,65.3,43.0,44,30.01,10.0,SW,13.8,18.4,N/A,,Clear,220,2012-10-09 19:15:00
2:35 PM,64.8,43.0,45,30.00,10.0,SSW,15.0,-,N/A,,Clear,200,2012-10-09 19:35:00
2:55 PM,65.3,43.5,45,29.99,10.0,SW,13.8,19.6,N/A,,Clear,220,2012-10-09 19:55:00
3:15 PM,65.5,43.3,45,29.99,10.0,South,12.7,16.1,N/A,,Clear,180,2012-10-09 20:15:00
3:35 PM,65.3,42.4,43,29.98,10.0,SSW,13.8,19.6,N/A,,Clear,210,2012-10-09 20:35:00
3:55 PM,65.1,43.0,45,29.97,10.0,South,13.8,20.7,N/A,,Clear,180,2012-10-09 20:55:00
4:15 PM,65.3,43.5,45,29.97,10.0,South,11.5,-,N/A,,Clear,170,2012-10-09 21:15:00
4:35 PM,64.8,43.3,46,29.97,10.0,SSW,12.7,19.6,N/A,,Clear,200,2012-10-09 21:35:00
4:55 PM,64.2,43.0,46,29.97,10.0,SSW,12.7,-,N/A,,Clear,200,2012-10-09 21:55:00
5:15 PM,63.5,43.3,48,29.97,10.0,SSW,9.2,-,N/A,,Clear,210,2012-10-09 22:15:00
5:35 PM,63.5,43.9,49,29.96,10.0,South,12.7,-,N/A,,Clear,190,2012-10-09 22:35:00
5:55 PM,61.7,43.5,51,29.96,10.0,SSW,10.4,-,N/A,,Clear,200,2012-10-09 22:55:00
6:15 PM,59.7,44.1,56,29.96,10.0,SSW,6.9,-,N/A,,Clear,200,2012-10-09 23:15:00
6:35 PM,56.3,45.0,66,29.96,10.0,SW,5.8,-,N/A,,Clear,220,2012-10-09 23:35:00
6:55 PM,54.1,44.1,69,29.96,10.0,SSW,6.9,-,N/A,,Clear,200,2012-10-09 23:55:00
7:15 PM,53.1,44.2,72,29.97,10.0,SSW,6.9,-,N/A,,Clear,200,2012-10-10 00:15:00
7:35 PM,52.5,45.7,78,29.97,10.0,SSW,5.8,-,N/A,,Clear,210,2012-10-10 00:35:00
7:55 PM,51.1,45.3,81,29.98,10.0,SSW,5.8,-,N/A,,Clear,210,2012-10-10 00:55:00
8:15 PM,51.6,44.8,77,29.98,10.0,SW,5.8,-,N/A,,Clear,220,2012-10-10 01:15:00
8:35 PM,50.9,44.6,79,29.98,10.0,SW,6.9,-,N/A,,Clear,220,2012-10-10 01:35:00
8:55 PM,51.8,45.1,78,29.97,10.0,SSW,5.8,-,N/A,,Clear,200,2012-10-10 01:55:00
9:35 PM,53.2,45.7,76,29.96,10.0,South,9.2,-,N/A,,Clear,190,2012-10-10 02:35:00
9:55 PM,53.4,45.3,74,29.96,10.0,South,8.1,-,N/A,,Clear,190,2012-10-10 02:55:00
10:15 PM,53.8,45.5,74,29.97,10.0,SSW,6.9,-,N/A,,Scattered Clouds,200,2012-10-10 03:15:00
10:35 PM,53.8,45.7,74,29.96,10.0,South,5.8,-,N/A,,Scattered Clouds,190,2012-10-10 03:35:00
10:55 PM,54.5,46.4,74,29.97,10.0,SW,5.8,-,N/A,,Mostly Cloudy,220,2012-10-10 03:55:00
11:15 PM,54.7,46.4,74,29.97,10.0,SW,5.8,-,N/A,,Overcast,220,2012-10-10 04:15:00
11:35 PM,55.2,46.4,72,29.96,10.0,SSW,8.1,-,N/A,,Overcast,210,2012-10-10 04:35:00
11:55 PM,55.4,46.4,72,29.96,10.0,SW,6.9,-,N/A,,Overcast,220,2012-10-10 04:55:00